Date String (YYYY-MM-DD hh:mm:ss) UTC,Instrument flags,Ambient pressure (hPa),Sample flow (lpm),Bypass flow (lpm),Sample temperature (°C),Ambient temperature (°C),ASC tube jacket temperature (°C),LED temperature (°C),Box temperature (°C),Sample RH (%),Span deviation,Mass concentration (μg/m³),Mass concentration (μg/m³),Mass concentration (μg/m³)
DateTimeUTC,F1_M11,P_M11,Q1_M11,Q2_M11,T1_M11,T2_M11,T3_M11,T4_M11,T5_M11,U1_M11,ZSPAN_M11,X2_M11,X0_M11,X1_M11
2022-07-24 13:00:00,,0830.6,5.01,0.00,32.5,29.3,00.0,40.7,32.9,35.1,0000.1,0011.73,0016.19,0010.37
2022-07-24 13:01:00,,0830.6,5.00,0.00,32.6,29.3,00.0,40.7,33.1,34.7,0000.2,0011.79,0016.26,0010.45
2022-07-24 13:02:00,,0830.6,5.00,0.00,32.7,29.4,00.0,40.7,33.1,34.6,0000.1,0011.87,0016.35,0010.56
2022-07-24 13:03:00,,0830.6,4.99,0.00,32.7,29.4,00.0,40.7,33.0,34.7,-000.1,0011.91,0016.53,0010.67
2022-07-24 13:04:00,,0830.6,5.02,0.00,32.7,29.4,00.0,40.7,33.0,34.8,-000.3,0012.02,0016.59,0010.79
2022-07-24 13:05:00,,0830.6,4.99,0.00,32.7,29.5,00.0,40.7,33.0,34.9,-000.4,0012.13,0016.80,0010.94
2022-07-24 13:06:00,,0830.6,5.00,0.00,32.6,29.5,00.0,40.8,33.1,35.0,-000.9,0012.26,0017.29,0011.09
2022-07-24 13:07:00,,0830.6,4.99,0.00,32.7,29.5,00.0,40.8,33.1,34.9,-001.0,0012.48,0018.32,0011.21
2022-07-24 13:08:00,,0830.6,5.00,0.00,32.7,29.5,00.0,40.8,33.1,34.8,-001.2,0012.56,0018.53,0011.30
2022-07-24 13:09:00,,0830.6,5.02,0.00,32.7,29.5,00.0,40.8,33.1,34.8,-001.1,0012.65,0018.61,0011.38
2022-07-24 13:10:00,,0830.6,5.00,0.00,32.6,28.8,00.0,40.7,33.0,34.9,-001.1,0012.70,0018.68,0011.46
2022-07-24 13:11:00,,0830.6,5.01,0.00,32.6,28.2,00.0,40.7,33.0,35.1,-001.3,0012.82,0018.93,0011.54
2022-07-24 13:12:00,,0830.6,4.99,0.00,32.6,28.1,00.0,40.7,32.9,35.0,-001.2,0012.93,0019.08,0011.61
2022-07-24 13:13:00,,0830.6,5.00,0.00,32.7,28.1,00.0,40.6,32.8,34.8,-000.9,0012.94,0019.07,0011.63
2022-07-24 13:14:00,,0830.6,5.00,0.00,32.6,28.2,00.0,40.6,32.8,34.8,-000.6,0012.98,0018.81,0011.68
2022-07-24 13:15:00,,0830.6,4.99,0.00,32.6,28.3,00.0,40.6,32.7,34.9,-000.4,0013.04,0018.82,0011.71
2022-07-24 13:16:00,,0830.6,5.00,0.00,32.6,28.4,00.0,40.6,32.7,35.1,-000.4,0013.03,0018.75,0011.68
2022-07-24 13:17:00,,0830.6,5.01,0.00,32.7,28.5,00.0,40.6,32.8,34.9,-000.3,0012.95,0018.63,0011.59
2022-07-24 13:18:00,,0830.6,5.01,0.00,32.8,28.7,00.0,40.6,32.9,34.4,-000.3,0012.78,0017.68,0011.47
2022-07-24 13:19:00,,0830.7,4.99,0.00,32.9,28.8,00.0,40.7,32.9,34.3,-000.0,0012.64,0017.07,0011.37
2022-07-24 13:20:00,,0830.6,5.01,0.00,32.9,28.9,00.0,40.7,32.9,34.2,0000.4,0012.59,0017.13,0011.30
2022-07-24 13:21:00,,0830.6,4.99,0.00,32.8,29.0,00.0,40.7,32.9,34.3,0000.3,0012.57,0017.27,0011.25
2022-07-24 13:22:00,,0830.6,5.01,0.00,32.8,29.0,00.0,40.7,32.9,34.4,0000.5,0012.51,0017.15,0011.21
2022-07-24 13:23:00,,0830.6,4.99,0.00,32.7,29.1,00.0,40.8,32.9,34.5,0000.8,0012.53,0017.17,0011.19
2022-07-24 13:24:00,,0830.6,4.99,0.00,32.7,29.2,00.0,40.8,32.9,34.5,0000.7,0012.61,0017.38,0011.21
2022-07-24 13:25:00,,0830.7,5.00,0.00,32.6,29.2,00.0,40.8,32.9,34.8,0000.4,0012.65,0017.51,0011.21
2022-07-24 13:26:00,,0830.7,4.99,0.00,32.6,29.3,00.0,40.8,32.9,34.9,0000.5,0012.67,0017.53,0011.24
2022-07-24 13:27:00,,0830.7,5.01,0.00,32.5,29.3,00.0,40.8,32.9,35.0,0000.4,0012.71,0017.66,0011.26
2022-07-24 13:28:00,,0830.8,5.00,0.00,32.5,29.4,00.0,40.8,33.0,34.8,0000.5,0012.68,0017.32,0011.28
2022-07-24 13:29:00,,0830.8,4.99,0.00,32.5,29.4,00.0,40.8,33.0,34.8,0000.5,0012.74,0017.32,0011.32
2022-07-24 13:30:00,,0830.8,5.01,0.00,32.4,29.4,00.0,40.8,33.0,34.7,0000.5,0012.74,0017.35,0011.32
2022-07-24 13:31:00,,0830.7,5.00,0.00,32.4,29.5,00.0,40.8,33.0,34.8,-000.2,0012.68,0017.25,0011.27
2022-07-24 13:32:00,,0830.8,5.00,0.00,32.3,29.5,00.0,40.8,33.0,34.6,-000.3,0012.52,0017.02,0011.17
2022-07-24 13:33:00,,0830.8,5.01,0.00,32.3,29.2,00.0,40.7,33.0,34.5,-000.5,0012.39,0016.95,0011.04
2022-07-24 13:34:00,,0830.8,5.00,0.00,32.3,28.3,00.0,40.6,32.9,34.4,-000.9,0012.18,0016.80,0010.87
2022-07-24 13:35:00,,0830.8,5.00,0.00,32.2,27.6,00.0,40.5,32.8,34.5,-001.0,0011.93,0017.39,0010.69
2022-07-24 13:36:00,,0830.8,4.99,0.00,32.0,27.5,00.0,40.5,32.5,35.0,-001.2,0011.70,0017.15,0010.52
2022-07-24 13:37:00,,0830.8,5.00,0.00,31.9,27.5,00.0,40.4,32.5,35.4,-001.3,0011.49,0016.96,0010.33
2022-07-24 13:38:00,,0830.7,5.00,0.00,32.1,27.7,00.0,40.4,32.6,35.2,-001.1,0011.21,0016.70,0010.08
2022-07-24 13:39:00,,0830.8,4.99,0.00,32.3,27.9,00.0,40.3,32.7,34.7,-001.4,0010.96,0016.45,0009.80
2022-07-24 13:40:00,,0830.8,5.00,0.00,32.4,28.0,00.0,40.3,32.7,34.2,-001.3,0010.71,0016.67,0009.56
2022-07-24 13:41:00,,0830.9,5.01,0.00,32.5,28.2,00.0,40.3,32.6,33.9,-001.4,0010.49,0016.70,0009.35
2022-07-24 13:42:00,,0830.9,5.00,0.00,32.5,28.3,00.0,40.4,32.6,33.8,-001.1,0010.28,0016.53,0009.13
2022-07-24 13:43:00,,0830.8,5.00,0.00,32.4,28.5,00.0,40.4,32.6,33.9,-000.9,0010.13,0016.52,0008.99
2022-07-24 13:44:00,,0830.9,4.99,0.00,32.4,28.6,00.0,40.4,32.6,33.9,-000.7,0010.05,0016.84,0008.88
2022-07-24 13:45:00,,0830.9,5.01,0.00,32.3,28.7,00.0,40.4,32.6,34.0,-000.9,0009.94,0016.70,0008.78
2022-07-24 13:46:00,,0830.9,4.98,0.00,32.3,28.8,00.0,40.4,32.6,34.3,-001.1,0009.88,0015.77,0008.72
2022-07-24 13:47:00,,0830.9,5.00,0.00,32.2,28.9,00.0,40.5,32.6,34.7,-000.7,0009.83,0015.62,0008.66
2022-07-24 13:48:00,,0830.8,5.00,0.00,32.2,28.9,00.0,40.5,32.6,34.8,-000.5,0009.74,0015.81,0008.60
2022-07-24 13:49:00,,0830.9,4.99,0.00,32.2,29.0,00.0,40.5,32.7,34.7,-000.1,0009.73,0015.60,0008.59
2022-07-24 13:50:00,,0830.9,5.00,0.00,32.1,29.1,00.0,40.5,32.7,34.9,0000.9,0009.78,0015.66,0008.65
2022-07-24 13:51:00,,0830.9,5.00,0.00,32.1,29.1,00.0,40.5,32.7,35.0,0000.9,0009.84,0015.99,0008.72
2022-07-24 13:52:00,,0830.9,4.99,0.00,32.1,29.2,00.0,40.5,32.8,35.0,0000.8,0009.83,0015.78,0008.75
2022-07-24 13:53:00,,0830.9,5.00,0.00,32.3,29.2,00.0,40.4,32.9,34.7,0001.0,0009.85,0015.74,0008.77
2022-07-24 13:54:00,,0830.9,5.02,0.00,32.4,29.3,00.0,40.4,33.0,34.4,0000.6,0009.86,0015.53,0008.78
2022-07-24 13:55:00,,0830.9,5.00,0.00,32.5,29.3,00.0,40.5,33.0,34.3,0000.6,0009.90,0015.16,0008.82
2022-07-24 13:56:00,,0830.9,4.99,0.00,32.5,29.4,00.0,40.5,32.9,34.5,0000.4,0009.95,0015.21,0008.87
2022-07-24 13:57:00,,0830.9,5.00,0.00,32.4,29.4,00.0,40.5,32.9,34.5,0000.4,0010.02,0015.33,0008.95
2022-07-24 13:58:00,,0830.9,5.00,0.00,32.4,29.4,00.0,40.6,32.9,34.7,0000.1,0010.09,0015.40,0009.01
2022-07-24 13:59:00,,0830.9,5.01,0.00,32.4,29.5,00.0,40.6,33.0,35.1,0000.1,0010.18,0015.23,0009.05
